Weather observations for the past three days for
Mankato, Mankato Regional Airport
Imperial (Metric)
Date Time (cdt) Wind (mph) Vis. (mi.) Weather Sky Cond. Temperature (ºF) Relative Humidity Wind Chill (°F) Heat Index (°F) Pressure Precipitation (in)
Air Dwpt 6 hour altimeter (in) sea level (mb) 1 hr 3 hr 6 hr
Max. Min.
15 02:56 S 5 10.00 Fair CLR 72 70 94% 29.85 1010.3
15 01:56 Calm 10.00 Fair CLR 72 71.1 97% 29.86 1010.7
15 00:56 Calm 10.00 Fair CLR 73 69.1 86 73 87% 29.88 1011.3
14 23:56 SE 3 9.00 Fair CLR 75.9 73 91% 76 29.88 1011.3
14 22:56 Calm 10.00 Fair CLR 77 70 79% 79 29.88 1011.4
14 21:56 Calm 10.00 Fair CLR 79 70 74% 82 29.89 1011.5
14 20:56 N 3 10.00 Fair CLR 81 70 69% 84 29.88 1011.2
14 19:56 N 6 10.00 Fair CLR 84 70 63% 88 29.88 1011.4
14 18:56 N 7 10.00 Fair CLR 86 69.1 87.1 82 57% 90 29.89 1011.5
14 17:56 N 9 10.00 Fair CLR 87.1 70 57% 92 29.89 1011.5
14 16:56 N 10 10.00 A Few Clouds FEW041 87.1 68 53% 91 29.89 1011.7
14 15:56 N 6 10.00 A Few Clouds FEW035 84.9 72 65% 91 29.89 1011.6
14 14:56 N 7 10.00 Partly Cloudy SCT030 84.9 73 68% 92 29.89 1011.7
14 13:56 NW 5 10.00 Overcast BKN023 OVC028 82 73.9 77% 88 29.89 1011.5
14 12:56 NE 9 10.00 Mostly Cloudy BKN018 82.9 73.9 82.9 71.1 74% 89 29.89 1011.3
14 11:56 Calm 10.00 Mostly Cloudy BKN012 81 75 82% 87 29.9 1011.8
14 10:56 S 5 10.00 Overcast OVC013 77 73 88% 78 29.89 1011.6
14 09:56 S 9 10.00 Overcast OVC013 75.9 72 88% 76 29.91 1012.2
14 08:56 SE 10 10.00 Overcast OVC013 75.9 72 88% 76 29.9 1012.0
14 07:56 S 7 10.00 Overcast BKN015 OVC026 73 69.1 87% 29.93 1012.8
14 06:56 SE 12 10.00 A Few Clouds FEW026 71.1 68 80.1 69.1 90% 29.88 1011.3
14 05:56 SE 12 10.00 Fair CLR 69.1 68 96% 29.89 1011.7
14 04:56 E 14 10.00 Fair CLR 70 68 93% 29.91 1012.0
14 03:56 SE 9 10.00 Fair CLR 71.1 66.9 87% 29.9 1011.9
14 02:56 SE 7 10.00 Thunderstorm CLR 70 66 87% 29.86 1010.6
14 01:56 N 28 G 39 10.00 Squalls and Windy SCT021 OVC036 73.9 66.9 79% 29.89 1011.6
14 00:56 S 5 10.00 Fair CLR 80.1 78.1 88 80.1 94% 86 29.9 1011.7
13 23:56 S 6 10.00 A Few Clouds FEW038 81 78.1 91% 89 29.89 1011.7
13 22:56 S 8 10.00 Mostly Cloudy BKN040 82 78.1 88% 91 29.9 1011.9
13 21:56 S 7 10.00 Fair CLR 82.9 77 82% 92 29.9 1011.9
13 20:56 S 9 10.00 Fair CLR 84.9 77 77% 95 29.89 1011.4
13 19:56 S 6 10.00 A Few Clouds FEW045 87.1 77 72% 99 29.91 1012.0
13 18:56 S 7 10.00 Thunderstorm in Vicinity CLR 88 77 89.1 82.9 70% 100 29.9 1011.8
13 17:56 S 9 10.00 Thunderstorm BKN036 BKN050 89.1 75.9 65% 100 29.92 1012.4
13 16:56 SW 6 10.00 Thunderstorm BKN034 BKN046 89.1 77 68% 102 29.93 1012.9
13 15:56 S 10 G 18 10.00 Partly Cloudy SCT033 SCT040 87.1 75.9 70% 98 29.94 1013.3
13 14:56 SE 10 10.00 Mostly Cloudy FEW032 SCT050 BKN100 87.1 75.9 70% 98 29.96 1014.0
13 13:56 SE 6 10.00 Mostly Cloudy BKN029 BKN037 86 75 70% 95 29.98 1014.6
13 12:56 SE 9 10.00 Partly Cloudy SCT024 82.9 75 82.9 72 77% 90 29.98 1014.6
13 11:56 E 7 10.00 A Few Clouds FEW014 80.1 73.9 82% 85 30 1015.2
13 10:56 S 16 10.00 Fair CLR 77 72 85% 78 29.98 1014.7
13 09:56 SE 13 10.00 Fair CLR 77 72 85% 78 30 1015.5
13 08:56 E 5 10.00 Mostly Cloudy FEW014 SCT020 BKN060 73.9 71.1 91% 30.05 1017.3
13 07:56 SE 3 10.00 Partly Cloudy SCT031 SCT048 73 70 90% 30.05 1017.0
13 06:56 SE 8 10.00 Fair CLR 72 70 73.9 72 94% 30.03 1016.5
13 05:56 S 10 10.00 Overcast OVC036 73 70 90% 30.02 1016.0
13 04:56 S 12 10.00 Overcast OVC036 73 70 90% 30.02 1016.0
13 03:56 S 10 10.00 Overcast OVC036 73.9 70 88% 30.02 1016.0
13 02:56 S 10 10.00 Overcast OVC036 73.9 69.1 85% 30.02 1016.1
13 01:56 S 13 10.00 Mostly Cloudy BKN038 73 69.1 87% 30.02 1016.1
13 00:56 S 10 10.00 Partly Cloudy SCT036 73.9 69.1 82 73.9 85% 30.05 1016.9
12 23:56 SE 10 10.00 Fair CLR 75 69.1 82% 75 30.04 1016.7
12 22:56 SE 10 10.00 Fair CLR 75 69.1 82% 75 30.04 1016.9
12 21:56 SE 10 10.00 Fair CLR 75.9 69.1 79% 77 30.04 1016.7
12 20:56 SE 10 10.00 Fair CLR 77 68 74% 79 30.03 1016.6
12 19:56 S 9 10.00 Fair CLR 80.1 66.9 64% 82 30.03 1016.6
12 18:56 S 10 G 18 10.00 A Few Clouds FEW050 82 66 84 80.1 58% 84 30.03 1016.5
12 17:56 S 9 10.00 Fair CLR 82.9 66 57% 85 30.03 1016.4
12 16:56 S 13 10.00 Fair CLR 82.9 64.9 55% 85 30.04 1016.7
12 15:56 SE 14 10.00 Fair CLR 82.9 64 53% 84 30.04 1016.9
12 14:56 SE 13 10.00 Fair CLR 82 63 53% 83 30.04 1016.8
12 13:56 S 14 G 21 10.00 Fair CLR 81 63 54% 82 30.06 1017.4
12 12:56 S 12 G 17 10.00 Fair CLR 80.1 63 80.1 66.9 56% 81 30.07 1018.0
12 11:56 S 14 G 18 10.00 Fair CLR 79 62.1 56% 80 30.08 1018.1
12 10:56 S 14 10.00 Fair CLR 77 64.9 66% 79 30.09 1018.5
12 09:56 S 13 10.00 Fair CLR 75 66 74% 76 30.11 1019.1
12 08:56 S 9 10.00 Fair CLR 73 66 79% 30.12 1019.4
12 07:56 S 6 10.00 Fair CLR 69.1 64.9 87% 30.1 1019.0
12 06:56 SE 6 10.00 Fair CLR 66.9 64.9 72 66 93% 30.08 1018.3
12 05:56 S 7 10.00 Fair CLR 66 64 93% 30.07 1017.9
12 04:56 S 7 10.00 Fair CLR 66.9 64.9 93% 30.06 1017.6
12 03:56 S 6 10.00 Fair CLR 68 64.9 90% 30.06 1017.4
Date Time (cdt) Wind (mph) Vis. (mi.) Weather Sky Cond. Air Dwpt Max. Min. Relative Humidity Wind Chill (°F) Heat Index (°F) altimeter (in) sea level (mb) 1 hr 3 hr 6 hr
6 hour
Temperature (ºF) Pressure Precipitation (in)